Regional Weather Roundup
Issued by NWS Sterling, VA

Home | Current Version | Previous Version | Graphics & Text | Print | Product List | Glossary On
Versions: 1 2 3 4 5 6 7 8 9 10 11 12 13 14 15 16 17 18 19 20 21 22 23 24 25 26 27 28
000
ASUS41 KLWX 230611
RWRLWX

REGIONAL WEATHER ROUNDUP
NATIONAL WEATHER SERVICE BALTIMORE MD/WASHINGTON DC
200 AM EDT WED AUG 23 2017

Note: "FAIR" indicates few or no clouds below 12,000 feet
with no significant weather and/or obstructions to visibility.
 TC=TEMPERATURE CELSIUS

 * =Non NWS site. Station does not report precipitation (e.g. rain,
    snow, etc.), thunder, or fog.

DCZ001-MDZ009-015-VAZ040>042-051-053>054-230700-
WASHINGTON METRO

CITY           SKY/WX    TMP DP  RH WIND       PRES   REMARKS
WASHINGTON NAT MOCLDY    80  69  69 NW7       29.82F
DULLES         MOCLDY    76  69  79 NW5       29.83F
ANDREWS AFB    PTCLDY    80  68  67 NW8       29.82R
FT BELVOIR     PTCLDY    79  70  72 CALM      29.82S
QUANTICO       PTCLDY    81  74  79 VRB3      29.83R
COLLEGE PARK*  CLOUDY    79  68  67 W5        29.81F
LEESBURG*      MOCLDY    75  72  88 CALM      29.84S
MANASSAS*      PTCLDY    77  71  82 CALM      29.83F
GAITHERSBURG*  MOCLDY    73  70  90 W5        29.84F

$$

MDZ006>007-011-014-230700-
BALTIMORE METRO

CITY           SKY/WX    TMP DP  RH WIND       PRES   REMARKS
BWI AIRPORT    CLOUDY    78  70  76 W7        29.81F
MD SCIENCE CTR   N/A     77  72  84 MISG      29.81S
MARTIN STATE   CLOUDY    75  73  94 SW6       29.82F
ANNAPOLIS      MOCLDY    83  75  77 W6        29.80S HX  90
FORT MEADE*    CLOUDY    77  68  73 W5        29.84S

$$

MDZ012-015-019>023-230700-
MARYLAND EASTERN SHORE

CITY           SKY/WX    TMP DP  RH WIND       PRES   REMARKS
OCEAN CITY     CLEAR     80  77  90 SW10      29.83F
SALISBURY      CLEAR     79  77  94 SW9       29.82F
BAY BRIDGE AP* MOCLDY    82  73  74 W6        29.81S
CAMBRIDGE*     CLEAR     81  75  83 S8        29.81F
EASTON*        CLEAR     83  74  76 W7        29.83F

$$

MDZ017>025-230700-
SOUTHERN MARYLAND

CITY           SKY/WX    TMP DP  RH WIND       PRES   REMARKS
PATUXENT RIVER CLEAR     80  75  84 SW12      29.81F
ST INIGOES     CLEAR     82  76  81 SW15G22   29.81F
LEONARDTOWN*   CLEAR     79  72  78 SW9G16    29.83F

$$

MDZ003>005-230700-
NORTH CENTRAL MARYLAND

CITY           SKY/WX    TMP DP  RH WIND       PRES   REMARKS
FREDERICK*     CLOUDY    73  73 100 SE3       29.85F
HAGERSTOWN APT CLOUDY    74  71  91 SW3       29.84S
WESTMINSTER*   LGT RAIN  73  72  94 SW3       29.84S

$$

MDZ501>502-230700-
WESTERN MARYLAND

CITY           SKY/WX    TMP DP  RH WIND       PRES   REMARKS
OAKLAND*       CLOUDY    63  63 100 W9        29.94S
CUMBERLAND*    MOCLDY    72  72 100 SE5       29.90S

$$

VAZ025>031-230700-
SHENANDOAH VALLEY

CITY           SKY/WX    TMP DP  RH WIND       PRES   REMARKS
WINCHESTER*    CLOUDY    70  68  94 S3        29.85S
FRONT ROYAL*   CLOUDY    72  70  94 CALM      29.84F
LURAY*         PTCLDY    75  68  78 CALM      29.86R
NEW MARKET*    MOCLDY    73  68  85 CALM      29.86R
STAUNTON*      MOCLDY    74  66  76 CALM      29.91R
WAYNESBORO*    MOCLDY    77  66  68 W5        29.91S

$$

WVZ021-048>050-054>055-230700-
EASTERN WEST VIRGINIA PANHANDLE

CITY           SKY/WX    TMP DP  RH WIND       PRES   REMARKS
MARTINSBURG    CLOUDY    72  68  87 SW10      29.83F
PETERSBURG*    CLOUDY    73  73  98 CALM      29.89R

$$

VAZ036>039-050-230700-
CENTRAL FOOTHILLS

CITY           SKY/WX    TMP DP  RH WIND       PRES   REMARKS
CHARLOTTESVILL MOCLDY    80  70  71 VRB3      29.84S
CULPEPER*      PTCLDY    75  71  86 CALM      29.84F
ORANGE*        CLOUDY    73  68  83 CALM      29.83F
GORDONSVILLE*  CLOUDY    74  71  87 CALM      29.83S
WARRENTON*     PTCLDY    77  68  74 NE3       29.82F

$$

VAZ055>057-230700-
NORTH AND CENTRAL PIEDMONT

CITY           SKY/WX    TMP DP  RH WIND       PRES   REMARKS
FREDERICKSBRG* CLOUDY    80  73  80 SW7       29.81S
STAFFORD*      CLEAR     77  74  90 N7        29.87R

$$

NCZ024-NYZ072-PAZ021-071-VAZ022-071-230700-
OTHER REGIONAL OBSERVATIONS

CITY           SKY/WX    TMP DP  RH WIND       PRES   REMARKS
NEW YORK CITY  CLOUDY    73  71  93 VRB7      29.80F
PHILADELPHIA   CLOUDY    76  73  91 SW13      29.81R
PITTSBURGH     CLOUDY    67  65  93 W3        29.90R
ROANOKE        PTCLDY    76  67  73 W7        29.92F
RICHMOND       PTCLDY    79  74  84 SW9       29.84F
RALEIGH        PTCLDY    78  73  84 SW8       29.92F

$$

ANZ530>537-230700-
MARINE OBSERVATIONS

STATION/POSITION TIME  TEMP    WIND        PRES
                       AIR SEA DIR/SP/G
                 (UTC) (F)     (DEG/KT/KT) (MB)
THOMAS PT LIGHT  0600   82 81  260/ 13/ 14   N/A
BALT KEY BRIDGE  0548          290/  7/  9 1009.3F
COVE POINT       0548          230/ 13/ 18 1009.8F
LEWISETTA        0548      83  240/ 14/ 17 1009.7F
SOLOMONS ISLAND  0536      82  210/ 15/ 17   N/A
PINEY POINT      0548          240/ 16/ 19   N/A

$$





USA.gov is the U.S. government's official web portal to all federal, state and local government web resources and services.